EHI
0 0 0 0 0 0 0 0 0 0 0 0 1 2 6 9 10 9 6 8 13 17 17 19 22 23 23 25 24 21 21 21 21 20 19 17 15 11 7 5 5 4 4 5
0 0 0 0 0 0 0 0 0 0 0 0 0 1 4 6 7 5 5 6 10 14 17 20 22 22 22 23 21 19 19 19 19 19 19 18 16 13 9 6 4 3 4 5
0 0 0 0 0 0 0 0 0 0 0 0 0 0 1 4 4 3 3 4 7 11 16 20 22 22 21 19 17 16 17 17 17 17 18 18 17 14 11 7 4 3 3 4
0 0 0 0 0 0 0 0 0 0 0 0 0 0 1 2 3 4 4 4 6 10 15 19 22 23 22 19 16 15 16 16 15 15 16 16 15 13 11 7 4 3 3 3
0 0 0 0 0 0 0 0 0 0 0 0 0 0 0 1 2 4 4 5 7 12 16 19 22 24 24 23 19 17 17 17 15 14 14 12 11 11 9 6 3 2 2 3
0 0 0 0 0 0 0 0 0 0 0 0 0 0 0 0 1 2 3 4 6 12 17 21 23 23 23 24 23 20 19 17 16 15 12 10 10 10 9 6 2 1 2 3
0 0 0 0 0 0 0 0 0 0 0 0 0 0 0 0 0 1 3 3 4 9 17 23 23 21 21 22 22 22 19 16 16 14 12 10 10 10 8 5 3 2 3 3
0 0 0 0 0 0 0 0 0 0 0 0 0 0 0 0 0 2 3 3 3 7 15 21 21 19 19 21 21 20 17 14 14 13 12 11 11 9 7 4 3 3 3 3
0 0 0 0 0 0 0 0 0 0 0 0 0 0 0 0 0 2 3 3 3 4 9 15 17 17 18 20 20 18 16 12 11 11 12 11 11 8 6 4 3 3 2 1
0 0 0 0 0 0 0 0 0 0 0 0 0 0 0 0 1 2 3 4 4 3 6 11 13 14 17 18 18 18 16 13 10 9 10 11 10 7 5 4 3 2 1 0
0 0 0 0 0 0 0 0 0 0 0 0 0 0 0 0 1 3 4 5 6 5 6 9 11 13 15 16 16 15 14 12 9 8 10 10 8 6 4 3 2 1 0 0
0 0 0 0 0 0 0 0 0 0 0 0 0 0 0 1 3 4 4 5 7 6 6 8 10 13 15 15 13 11 10 10 9 9 10 9 6 4 3 2 1 0 0 0
0 0 0 0 0 0 0 0 0 0 0 0 0 0 0 2 4 6 5 5 6 7 6 6 9 13 15 15 13 10 9 10 11 10 9 7 5 3 2 1 0 0 0 0
0 0 0 0 0 0 0 0 0 0 0 0 0 1 1 2 4 5 5 6 7 8 6 4 7 11 14 15 14 12 11 12 12 11 7 5 3 1 1 0 0 0 0 0
0 0 0 0 0 0 0 0 0 1 1 1 1 1 1 1 2 4 4 5 7 7 4 3 5 9 13 15 15 14 14 13 12 9 5 2 1 0 0 0 0 0 0 0
0 0 0 0 1 1 1 0 0 1 2 2 1 1 1 1 2 3 3 4 5 5 3 2 5 8 12 14 15 15 15 15 12 8 3 1 0 0 0 0 0 0 0 0
0 0 0 0 1 1 1 0 0 1 1 1 1 0 0 0 1 2 3 3 4 4 3 2 3 7 11 13 12 13 15 15 12 7 4 2 1 0 0 0 0 0 0 0
0 0 0 0 0 0 0 0 0 0 0 0 0 0 0 0 0 1 2 3 3 4 4 3 2 5 8 10 10 10 12 13 10 7 5 3 1 0 0 0 0 0 0 0
0 0 0 0 0 0 0 0 0 0 0 0 0 0 0 0 0 1 1 1 2 3 3 3 3 4 6 7 7 7 9 10 8 7 6 3 1 1 0 0 0 0 0 0
0 0 0 0 0 0 0 0 0 0 0 0 0 0 0 0 1 2 2 1 2 3 4 4 4 4 4 5 6 7 8 8 7 7 6 4 2 2 1 0 0 0 0 0
0 0 0 0 0 0 0 0 0 0 0 0 0 0 1 1 2 4 4 2 2 4 5 4 4 4 3 4 6 7 8 7 6 6 5 3 2 2 1 0 0 0 0 0
0 0 0 0 0 0 0 0 0 0 1 1 1 1 2 3 5 5 4 2 2 4 4 3 2 1 2 3 4 5 5 5 4 4 3 2 2 2 1 1 1 1 0 0
0 0 0 0 0 0 0 0 0 0 1 2 2 2 3 4 4 4 2 0 1 2 3 2 1 0 1 2 3 3 2 2 2 2 2 2 1 1 1 1 1 1 1 1
0 0 0 0 0 0 0 0 0 0 0 1 1 1 1 1 1 1 0 0 0 1 3 3 2 1 0 1 2 2 2 2 2 2 2 2 1 0 0 0 1 1 1 2
0 0 0 0 0 0 0 0 0 0 0 0 0 0 0 0 0 0 0 0 0 1 2 3 3 2 1 0 1 2 3 3 3 3 2 1 1 0 0 0 0 0 1 2
0 0 0 0 0 0 0 0 0 0 0 0 0 0 0 0 0 0 0 0 0 1 2 3 4 3 1 1 2 2 3 3 3 3 1 0 0 0 0 0 0 0 1 1
Wind_Speed
2 2 5 9 9 9 7 6 7 8 5 2 5 6 7 7 7 9 8 9 11 11 9 8 8 8 7 6 6 6 6 6 5 3 3 3 2 2 1 2 3 4 4 4
2 6 14 10 7 6 7 7 7 6 4 1 2 5 6 7 10 11 11 10 10 9 8 8 8 7 7 7 7 6 6 6 5 4 3 3 3 2 2 1 2 3 4 4
8 11 7 5 5 6 7 7 6 5 3 3 1 4 4 3 3 5 7 9 10 12 13 11 10 9 8 8 8 7 6 5 5 4 3 3 3 2 1 1 1 2 3 4
7 9 6 5 5 5 6 5 4 3 0 3 0 3 6 3 2 4 6 7 8 9 11 11 11 10 10 10 8 7 7 5 4 5 5 6 4 3 2 2 2 1 2 3
7 5 4 5 7 4 5 3 1 1 1 1 3 1 7 1 2 5 6 7 8 9 11 12 13 12 11 10 9 7 7 6 5 5 6 6 4 3 2 2 2 2 1 2
8 6 4 5 5 3 2 3 5 5 5 2 3 1 6 4 6 5 5 7 8 9 10 10 9 9 8 8 8 7 7 6 6 6 6 6 6 5 4 3 2 1 1 1
6 6 4 2 1 3 3 5 5 6 5 4 3 1 6 6 4 6 7 7 8 8 9 9 9 9 9 9 9 8 8 7 7 7 7 7 7 7 6 5 4 3 2 1
1 6 4 1 3 3 2 7 6 3 3 4 3 3 7 6 3 3 5 6 7 8 8 10 11 11 10 11 10 10 9 8 8 8 7 6 6 5 4 5 4 4 3 3
3 6 5 3 2 4 1 2 6 6 1 1 3 4 5 3 2 1 3 4 7 8 9 10 9 9 9 9 10 11 10 8 8 8 7 6 6 5 5 5 4 3 3 3
4 3 5 4 3 2 4 4 5 4 2 3 4 3 4 3 3 2 2 3 3 5 7 9 9 9 8 8 8 8 9 8 7 7 7 6 6 6 5 5 5 4 4 3
4 3 5 3 0 2 2 2 3 3 4 5 3 5 4 5 5 3 3 4 4 6 7 8 8 8 8 7 7 7 7 6 6 7 6 6 6 5 5 5 5 5 4 4
2 4 2 5 5 3 3 3 5 4 3 4 3 7 4 3 2 3 3 3 3 4 6 7 8 7 7 7 6 7 7 7 7 6 6 6 6 5 5 5 5 5 4 4
2 5 2 7 8 5 2 1 1 4 4 3 3 6 3 1 1 2 2 2 2 3 4 5 6 7 7 7 7 7 7 7 7 6 6 6 6 6 6 6 5 5 5 4
4 4 5 6 6 3 3 4 1 3 3 3 5 6 4 1 0 0 1 3 3 3 4 4 5 5 6 6 7 7 6 7 7 6 6 6 6 7 6 6 5 5 5 4
4 2 2 5 5 1 2 3 2 0 3 5 5 4 5 4 3 3 2 3 3 2 3 4 4 4 4 5 5 6 6 6 6 6 6 6 6 5 5 5 5 5 5 5
3 2 1 3 2 1 3 4 1 1 1 2 1 4 4 2 1 2 3 4 3 3 3 3 4 5 5 6 6 6 6 6 6 6 6 6 5 5 5 5 5 4 4 4
0 2 1 3 4 3 3 2 0 1 2 1 2 5 2 1 1 3 3 3 3 3 2 3 4 5 5 6 7 7 6 5 6 6 6 6 6 6 6 6 5 5 4 4
5 3 3 1 2 2 4 1 2 2 1 0 1 2 2 3 4 3 3 4 2 2 3 3 4 4 4 5 5 6 5 6 6 6 6 6 7 6 5 5 5 5 4 4
6 6 3 2 1 3 4 3 2 3 3 2 1 2 2 2 1 1 2 2 4 4 4 4 4 4 5 6 6 6 6 6 6 6 6 6 6 6 6 5 5 4 3 3
3 4 4 3 3 4 5 7 5 2 2 3 2 2 2 1 0 4 4 2 2 2 3 3 2 2 3 5 6 6 6 6 6 6 6 5 6 6 6 6 5 3 3 3
3 2 2 3 3 3 5 7 4 1 6 6 2 1 1 2 4 4 3 2 2 2 3 3 3 2 3 3 6 6 6 6 6 5 4 4 5 5 6 5 4 3 3 3
1 1 0 1 2 4 6 3 1 4 3 3 3 2 1 2 1 1 1 1 2 1 1 2 3 2 2 3 6 5 5 5 4 4 4 4 4 4 4 4 4 3 3 3
1 2 2 3 4 3 2 1 3 2 2 3 3 2 0 0 1 1 1 1 1 2 2 2 3 2 1 3 6 6 5 4 4 4 4 3 3 3 3 4 4 3 3 3
3 3 1 1 2 3 4 4 4 3 3 3 2 1 0 0 1 1 1 1 1 1 2 1 2 3 2 2 4 5 4 4 5 4 3 3 3 2 2 3 3 4 4 4
4 3 1 2 4 5 4 5 6 4 4 4 3 1 1 0 1 1 1 2 2 1 1 2 2 3 3 2 3 3 4 4 4 4 3 2 2 3 2 2 3 4 5 6
2 2 2 5 5 3 6 6 5 4 4 3 3 2 1 1 1 1 1 1 1 1 1 2 2 2 2 2 3 3 3 4 4 3 3 2 2 2 2 2 1 2 3 6
Wind_Direction
249 116 240 239 216 214 240 253 269 275 268 212 225 228 218 202 185 180 178 171 173 180 183 169 165 166 156 151 146 153 156 157 148 148 148 140 147 149 137 153 156 151 145 138
350 255 243 242 238 232 243 261 273 288 295 232 231 250 243 202 194 184 178 178 177 174 171 171 166 166 163 163 160 159 160 164 163 166 165 155 147 152 158 148 138 149 147 146
214 245 249 243 254 255 255 230 234 246 302 347 346 312 286 253 188 172 173 176 177 175 172 174 172 173 165 166 167 168 168 166 167 156 135 115 94 81 83 114 151 159 152 152
241 253 259 254 249 226 260 248 225 226 127 295 84 278 286 256 209 191 188 178 177 180 173 173 174 176 176 176 168 167 166 163 166 155 149 148 151 161 182 180 179 162 150 154
254 251 253 251 251 225 225 239 202 197 129 5 350 131 283 280 223 224 201 184 184 181 176 177 179 179 178 171 167 169 164 165 166 163 158 153 150 161 150 145 154 158 154 164
255 262 227 229 244 203 159 48 23 39 61 5 279 180 279 255 222 217 203 189 187 180 174 174 174 167 166 165 161 160 168 171 173 167 162 162 162 157 151 157 166 168 157 166
295 295 277 241 333 337 66 73 22 359 12 265 274 201 253 261 228 194 195 194 185 177 164 161 164 166 168 168 166 166 173 176 179 172 171 172 168 164 168 171 173 167 164 175
279 294 290 297 189 206 210 133 151 203 234 279 311 237 260 270 257 185 176 173 175 174 168 166 170 171 174 173 172 171 176 180 181 177 178 175 169 167 172 172 170 176 182 189
200 263 290 283 233 157 158 181 168 146 178 284 279 277 300 327 1 91 141 159 171 176 172 172 171 170 172 174 177 177 177 180 181 178 173 172 173 172 173 173 171 176 180 183
168 262 291 303 10 8 153 158 89 109 167 262 284 268 251 263 247 209 168 170 178 170 173 172 171 174 176 178 179 179 178 183 183 179 177 174 174 175 174 168 172 178 183 180
153 172 304 343 280 257 44 67 103 133 159 165 249 272 238 205 203 194 200 191 184 174 169 169 171 174 174 175 177 177 176 178 182 183 179 170 172 173 171 171 179 180 180 177
127 127 269 277 271 230 153 159 144 156 228 180 185 263 270 201 184 149 174 196 182 172 167 167 168 164 164 172 179 180 180 182 184 182 175 174 170 169 172 178 182 179 176 179
87 100 29 334 337 357 24 346 165 155 143 169 186 262 303 108 106 124 154 172 164 149 145 145 152 162 171 173 176 182 183 183 177 174 172 171 171 175 182 184 182 180 177 180
94 110 157 204 235 262 304 319 329 122 163 202 216 245 297 306 139 167 165 171 170 160 151 149 160 167 169 170 174 175 179 177 173 172 173 175 181 183 185 183 181 182 183 182
87 141 215 233 239 224 320 324 329 265 198 191 223 229 259 240 208 194 160 141 140 154 158 161 169 171 161 165 171 170 171 172 170 168 175 183 183 179 177 180 185 187 187 190
60 147 285 288 260 326 337 334 326 301 287 200 226 275 284 239 171 151 148 146 149 161 165 167 169 170 170 173 173 172 175 175 170 175 182 179 171 172 176 181 182 179 187 191
296 132 110 276 299 359 313 300 129 84 16 163 232 267 304 359 214 189 177 162 170 176 165 180 184 186 186 183 176 177 178 173 171 177 180 176 177 180 186 186 178 182 188 184
171 149 152 222 13 245 240 208 126 118 48 27 241 270 246 228 222 196 171 161 172 193 191 198 198 191 189 184 174 168 163 169 174 177 181 183 181 184 183 180 184 191 188 187
171 153 145 139 196 259 288 303 258 202 257 330 326 305 292 287 21 310 262 186 189 200 203 204 198 199 188 182 173 161 168 174 176 182 185 186 182 179 178 181 188 189 185 197
99 122 137 150 177 224 271 304 306 129 265 319 340 310 300 61 13 272 285 260 223 207 191 185 182 184 184 187 165 157 167 172 183 190 191 186 180 182 185 188 188 186 184 199
26 45 146 178 204 253 299 316 356 101 265 297 290 259 228 213 221 254 276 258 208 205 196 169 151 168 196 178 155 157 163 181 190 182 175 178 179 184 187 185 180 176 181 185
124 86 147 146 189 259 325 1 27 244 273 295 291 287 273 274 290 292 307 264 197 176 163 152 148 171 194 166 152 158 179 186 170 160 161 171 183 193 182 176 179 174 173 178
86 188 183 186 213 252 319 287 267 269 303 303 299 301 19 23 307 283 256 236 218 186 181 163 151 148 173 169 158 168 194 172 157 158 167 178 184 198 183 177 178 173 173 182
339 7 65 334 280 300 327 334 342 341 324 310 294 279 256 231 262 280 211 212 223 216 183 146 131 140 164 182 165 172 177 161 156 164 174 174 177 189 188 182 179 180 188 197
311 336 336 280 293 319 330 326 323 326 332 334 319 287 272 223 251 234 213 209 202 188 192 140 149 173 187 177 165 170 161 147 147 159 168 172 181 185 189 194 194 195 206 200
284 254 248 259 266 264 280 296 311 312 309 303 301 302 291 211 211 223 212 212 174 184 172 138 159 174 185 170 165 169 165 152 150 155 165 172 177 183 183 181 224 250 238 233